THOR ABLESTAR DEB, 1522

Orbit data source: Space-Track

THOR ABLESTAR DEB, 1522 is space debris in LEO originally from a launch on Fri, 13 Aug 1965 UTC launched from the Air Force Western Test Range (AFWTR). Debris objects in space refer to the collection of defunct objects orbiting the Earth. Examples of debris include non-operational satellites, rocket bodies, and fragments generated from explosions, collisions, or faulty payload assembly.

Loading next visibility...
Identifier
1522, 1965-065L
Orbit
LEO
Last TLE update
13 hours ago
Origin
Manufacturer
Unknown
Mission
Spacecraft
Bus & Motor
Unknown
Mass
Unknown
Launch date (UTC)
1965-08-13 (60 years ago)
Launch vehicle
Unknown
Launch site
Air Force Western Test Range (AFWTR)
Object type
Payload
Rocket body
Debris
Shape & HBR
Unknown
Radar Cross Section
Medium (>0.1 m² and <1 m²)

Expand to show TLE details & history

TLE from 13 hours ago
0 THOR ABLESTAR DEB
1 01522U 65065L   25189.82708153  .00000038  00000-0  56103-4 0  9991
2 01522  90.0916 123.8738 0072470 130.9378 284.3555 13.33821634914022
Epoch: 2025-07-08T19:50Z
TLE epoch observation values (Epoch: 2025-07-08T19:50:59.844Z)
Latitude
54.58031°
Longitude
-101.02018°
Altitude
1,128.332 km
Speed
7.3 km/s
True Right ascension
08h 14m 58s
True Declination
54° 25' 33"
Sunlit
Object was in daylight at epoch
Visualization orbit readout
Latitude
-2.86091°
Longitude
79.10836°
Altitude
1,102.974 km
Speed
7.317 km/s
Apparent Right ascension
18h 36m 49s
Apparent Declination
-55° 51' 38"
Sunlit
Object is in full shadow
Visualization observer readout
Local Sidereal Time
21:14:58
Azimuth
201.379° SSW
Elevation
-11.485°
Doppler factor
1
Orbital elements
Apogee altitude
1,183.864 km
Perigee altitude
1,075.049 km
Semi-major axis
7,507.593 km
Eccentricity
0.00725
Inclination
90.0916°
RAAN
123.8738°
Arg. of periapsis
130.9378°
True anomaly
Unknown
Mean anomaly
284.3555°
Eccentric anomaly
Unknown
Mean motion
3.33651 °/min
Orbital period
107.9 mins
BSTAR
0.000056103
Loading maneuver chart data...
Loading SW <> Apogee altitude chart data...
Loading historical data...
Loading historical data...
Loading historical data...
Loading historical data...
Loading historical data...
Loading historical data...
Loading historical data...

THOR ABLESTAR DEB Visibility forecast

Observer location: undefined°, undefined°

Span
Click to sort rows by Start time (UTC) header in descending order
Start Az.
Max El. time (UTC)
Max El. Az.
Max El.
End time (UTC)
End Az.
12 mins2025-07-09 19:05:12.199Z142.359° SSE2025-07-09 19:11:12.199Z80.759° E31.488°2025-07-09 19:17:12.199Z15.018° NNE
10 mins2025-07-09 20:54:12.199Z217.651° SW2025-07-09 20:59:12.199Z278.788° WNW30.347°2025-07-09 21:04:12.199Z335.664° NNW
6 mins2025-07-10 06:26:12.199Z54.572° ENE2025-07-10 06:28:12.199Z75.478° E16.679°2025-07-10 06:32:12.199Z114.596° SE
11 mins2025-07-10 08:12:12.199Z354.982° N2025-07-10 08:17:12.199Z249.073° W43.075°2025-07-10 08:23:12.199Z193.527° SSW
|